Flag Weather past 2 weeks in Wals-Siezenheim, Salzburg, Austria

Now
39 °F

Low clouds.


Feels Like: 37 °F
Forecast: 38 / 52 °F
Wind: 3 mph from North

Location: Salzburg-Flughafen

Current Time: Nov 26, 2014 at 4:19:40 AM

Latest Report: Nov 26, 2014 at 3:50 AM


Visibility: 5 mi

Pressure: 30.07 "Hg

Humidity: 93%

Dew point: 37 °F

Location of Wals-SiezenheimLocation

Historic Weather in Wals-Siezenheim — Graph

°F

Wals-Siezenheim temperature yesterday

Maximum temperature yesterday: 46 °F (at 1:50 PM)
Minimum temperature yesterday: 39 °F (at 11:50 PM)
Average temperature yesterday: 43 °F

Past Weeks' High & Low Weather Summary

 TemperatureHumidityPressure
High70 °F (Nov 12, 1:20 PM)100% (Nov 11, 3:20 AM)30.30 "Hg (Nov 11, 3:20 AM)
Low32 °F (Nov 17, 3:20 AM)40% (Nov 12, 10:50 AM)29.42 "Hg (Nov 15, 11:20 PM)
Average44 °F88%29.94 "Hg
* Reported Nov 11 2:20 AM — Nov 26 2:50 AM, Wals-Siezenheim, Weather by CustomWeather, © 2014

Note: Actual official high and low records may vary slightly from our data, if they occured in-between our weather recording intervals... More about our weather records

Advertising

Wals-Siezenheim weather history for previous 24 hours

 ConditionsComfort  
Time TempWeatherWind HumidityBarometerVisibility
2:50 AM
Nov 26
39 °FPassing clouds.5 mph93%30.07 "HgN/A
2:20 AM39 °FPassing clouds.5 mph93%30.07 "HgN/A
1:50 AM41 °FPassing clouds.2 mph87%30.07 "HgN/A
1:20 AM39 °FPassing clouds.3 mph93%30.07 "HgN/A
12:50 AM39 °FLow clouds.1 mph93%30.09 "HgN/A
12:20 AM39 °FPassing clouds.1 mph93%30.09 "HgN/A
11:50 PM
Nov 25
39 °FPassing clouds.1 mph93%30.09 "HgN/A
11:20 PM41 °FLow clouds.6 mph87%30.09 "HgN/A
10:50 PM41 °FLow clouds.3 mph87%30.12 "HgN/A
10:20 PM41 °FLow clouds.5 mph87%30.12 "HgN/A
9:50 PM41 °FLow clouds.6 mph87%30.12 "HgN/A
9:20 PM41 °FLow clouds.7 mph87%30.12 "HgN/A
8:50 PM41 °FLow clouds.6 mph87%30.12 "HgN/A
8:20 PM41 °FLow clouds.7 mph87%30.12 "HgN/A
7:50 PM41 °FLow clouds.7 mph87%30.12 "HgN/A
7:20 PM41 °FLow clouds.9 mph87%30.12 "HgN/A
6:50 PM41 °FPassing clouds.10 mph87%30.15 "HgN/A
6:20 PM41 °FPassing clouds.10 mph87%30.15 "HgN/A
5:50 PM43 °FPassing clouds.9 mph81%30.15 "HgN/A
5:20 PM43 °FPassing clouds.9 mph87%30.15 "HgN/A
4:50 PM43 °FPassing clouds.6 mph87%30.15 "HgN/A
4:20 PM45 °FPartly sunny.7 mph81%30.15 "HgN/A
3:50 PM45 °FPartly sunny.7 mph81%30.15 "HgN/A
3:20 PM45 °FPartly sunny.7 mph87%30.15 "HgN/A
2:50 PM46 °FPartly sunny.6 mph82%30.15 "HgN/A
2:20 PM46 °FPartly sunny.1 mph82%30.15 "HgN/A
1:50 PM46 °FPartly sunny.2 mph82%30.18 "HgN/A
1:20 PM45 °FPartly sunny.2 mph87%30.18 "HgN/A
12:50 PM45 °FPartly sunny.2 mph87%30.18 "HgN/A
12:20 PM45 °FPartly sunny.5 mph87%30.21 "HgN/A
11:50 AM45 °FPartly sunny.6 mph87%30.21 "HgN/A
11:20 AM45 °FPartly sunny.6 mph87%30.21 "HgN/A
10:50 AM45 °FPartly sunny.1 mph87%30.21 "HgN/A
10:20 AM45 °FPartly sunny.5 mph87%30.21 "Hg6 mi
9:50 AM43 °FPartly sunny.5 mph93%30.24 "Hg6 mi
9:20 AM43 °FPartly sunny.3 mph93%30.24 "Hg5 mi
8:50 AM43 °FPartly sunny.3 mph93%30.24 "Hg4 mi
8:20 AM43 °FPartly sunny.2 mph93%30.24 "Hg4 mi
7:50 AM43 °FPartly sunny.3 mph93%30.24 "Hg4 mi
7:20 AM43 °FPartly cloudy.3 mph93%30.24 "Hg4 mi
6:50 AM43 °FFog.3 mph100%30.24 "Hg3 mi
6:20 AM43 °FFog.2 mph100%30.24 "Hg1 mi
5:50 AM43 °FFog.No wind100%30.24 "Hg1 mi
5:20 AM43 °FFog.1 mph100%30.24 "Hg1 mi
4:50 AM43 °FFog.1 mph100%30.24 "Hg1 mi
4:20 AM43 °FFog.1 mph100%30.24 "Hg1 mi
Weather by CustomWeather, © 2014

See weather overviewHow to use our weather pages